Volver al catálogo

THOR 1

MARCOPOLO 2

ActivoComunicacionesGEO
NORAD 20762·PAYLOAD·🇳🇴 Norway

Lanzado Aug 18, 1990 desde Cape Canaveral Space Force Station

Loading…

TLE

ActualizadoSource: Space-Track

Época: Sep 14, 2026, 12:11 UTC

1 20762U 90074A   26257.50770862 -.00000073  00000-0  00000-0 0  9995
2 20762  14.6154   5.9604 0005531 233.6365 316.5579  0.99209394 47097

Sigue THOR 1 en tiempo real con AllMySat

Download on the App Store